Find Kirameki 1

NORAD ID: 43271 Int'l Des: 2018-033 Owner: DSNC Country: J operational
HEOCIRCULARGSOGEO

Live Position

Loading 3D Globe...

About Kirameki 1

Description loading...

Upcoming Passes

Passes for default location (London). Set your location on the main map for personalized predictions.

Altitude History

Loading altitude history...

Two-Line Element Set

1 43271U 18033A 26104.77544855 -.00000087 00000-0 00000+0 0 9995
2 43271 0.0131 251.9230 0000941 171.6079 220.5732 1.00271173 29421
Epoch: Apr 14, 2026 • Age: 9 hours

Current Status

Altitude 35782.3 km
Velocity 3.07 km/s
Sub-Earth Point -0.01°S, 161.99°E
Launch Date Apr 5, 2018
Age 8 years
Type other

Technical Details

Classification Payload
Mass 5000.00 kg
Dry Mass 2500.00 kg
Total Mass 5000.00 kg
Length 8.00 m
Diameter 4.00 m
Span 30.00 m
Shape Box +panels
Manufacturer MELCO
Bus Type DS-2000
Phase Status In Orbit
Owner/State DSNC/J

Most Searched